Vancouver, WA
on Monday, December 31, 2012

Monday
Previous Day Next Day
Daily Summary
 ActualAverageRecord
Temperature
Mean Temperature °F 40°F  
Max Temperature 35°F 46°F 58°F (1997)
Min Temperature 24°F 34°F 16°F (1927)
Degree Days
Heating Degree Days 35    
Month to date heating degree days 707  
Since 1 July heating degree days 1548  
Cooling Degree Days 0    
Month to date cooling degree days 0  
Year to date cooling degree days 398  
Moisture
Dew Point 28°F   
Average Humidity 83    
Maximum Humidity 96    
Minimum Humidity 69    
Precipitation
Precipitation 0.01 in 0.20 in 1.55 in (2002)
Month to date precipitation 7.67 6.77  
Year to date precipitation 45.99 39.14  
Snow
Snow 0.00 in in in ()
Month to date snowfall 0.0  
Snow Depth 0.00 in   
Wind
Wind Speed 2 mph   
Max Wind Speed 9 mph   
Max Gust Speed 13 mph   
Visibility 7 miles   
Events Snow   

Key: T is trace of precipitation, MM is missing value
Source: NWS Daily Summary
Time(PST)TemperatureDew PointHumidity Pressure Visibility Wind DirectionWind SpeedGust SpeedPrecipitationEvents Conditions
12:53 AM 27.0°F 23.0°F 85% 30.31 in 8.0 miles Calm Calm - N/A   Clear
1:53 AM 28.0°F 26.1°F 92% 30.32 in 10.0 miles Calm Calm - N/A   Clear
2:53 AM 28.9°F 25.0°F 85% 30.33 in 10.0 miles Calm Calm - N/A   Clear
3:53 AM 33.1°F 27.0°F 78% 30.31 in 10.0 miles ENE 3.5 mph - N/A   Clear
4:53 AM 34.0°F 25.0°F 70% 30.30 in 10.0 miles SE 8.1 mph - N/A   Scattered Clouds
5:53 AM 33.1°F 25.0°F 72% 30.28 in 10.0 miles SE 4.6 mph - N/A   Clear
6:53 AM 33.1°F 25.0°F 72% 30.29 in 10.0 miles SE 3.5 mph - N/A   Overcast
7:53 AM 33.1°F 26.1°F 75% 30.30 in 10.0 miles SSE 5.8 mph - N/A   Mostly Cloudy
8:53 AM 34.0°F 26.1°F 73% 30.30 in 10.0 miles SE 5.8 mph - N/A   Mostly Cloudy
9:53 AM 34.0°F 26.1°F 73% 30.32 in 10.0 miles ESE 6.9 mph - N/A   Overcast
10:53 AM 35.1°F 26.1°F 70% 30.32 in 10.0 miles Calm Calm - N/A   Overcast
11:36 AM 35.6°F 26.6°F 70% 30.32 in 4.0 miles North 3.5 mph - 0.00 in Snow Light Snow
11:42 AM 33.8°F 28.4°F 81% 30.32 in 1.8 miles North 4.6 mph - 0.00 in Snow Light Snow
11:53 AM 34.0°F 28.9°F 82% 30.32 in 2.5 miles Calm Calm - 0.00 in Snow Light Snow
12:16 PM 33.8°F 28.4°F 81% 30.32 in 2.0 miles Calm Calm - 0.00 in Snow Light Snow
12:30 PM 33.8°F 30.2°F 87% 30.31 in 6.0 miles Calm Calm - 0.00 in Snow Light Snow
12:53 PM 34.0°F 30.0°F 85% 30.31 in 5.0 miles Calm Calm - 0.00 in Snow Light Snow
1:53 PM 34.0°F 30.0°F 85% 30.30 in 2.0 miles NE 3.5 mph - 0.01 in Snow Light Snow
2:04 PM 35.6°F 30.2°F 81% 30.31 in 6.0 miles NNE 3.5 mph - 0.00 in Snow Light Snow
2:38 PM 35.6°F 30.2°F 81% 30.32 in 10.0 miles NNE 3.5 mph - 0.00 in   Overcast
2:48 PM 35.6°F 30.2°F 81% 30.32 in 10.0 miles North 3.5 mph - 0.00 in   Overcast
2:53 PM 35.1°F 30.0°F 82% 30.33 in 10.0 miles Calm Calm - 0.00 in   Overcast
3:01 PM 35.6°F 30.2°F 81% 30.33 in 10.0 miles Calm Calm - N/A   Overcast
4:37 PM 33.8°F 30.2°F 87% 30.35 in 10.0 miles Calm Calm - N/A   Overcast
4:53 PM 34.0°F 30.9°F 89% 30.35 in 10.0 miles Calm Calm - N/A   Overcast
6:53 PM 34.0°F 27.0°F 75% 30.36 in 10.0 miles SSE 4.6 mph - N/A   Overcast
7:53 PM 34.0°F 30.0°F 85% 30.38 in 10.0 miles Calm Calm - N/A   Overcast
8:53 PM 33.1°F 30.0°F 89% 30.40 in 7.0 miles ENE 3.5 mph - N/A   Partly Cloudy
9:17 PM 32.0°F 30.2°F 93% 30.41 in 6.0 miles Calm Calm - N/A   Scattered Clouds
9:26 PM 32.0°F 30.2°F 93% 30.41 in 5.0 miles Calm Calm - N/A   Mostly Cloudy
10:06 PM 32.0°F 30.2°F 93% 30.42 in 2.5 miles Calm Calm - N/A   Overcast
10:24 PM 30.2°F 28.4°F 93% 30.42 in 3.0 miles Calm Calm - N/A   Scattered Clouds
10:53 PM 30.9°F 28.9°F 92% 30.43 in 3.0 miles Calm Calm - N/A   Partly Cloudy
11:26 PM 30.2°F 28.4°F 93% 30.45 in 3.0 miles NE 3.5 mph - N/A   Mostly Cloudy
11:32 PM 30.2°F 28.4°F 93% 30.45 in 2.5 miles Calm Calm - N/A   Mostly Cloudy
11:45 PM 30.2°F 28.4°F 93% 30.45 in 1.8 miles Calm Calm - N/A   Overcast
11:53 PM 30.9°F 28.9°F 92% 30.46 in 1.8 miles Calm Calm - N/A   Overcast
Moon Phase
Dec. 31 Jan. 04 Jan. 11 Jan. 18 Jan. 26
Sunrise:07:51 AM (PST) Moon Rise:08:24 PM (PST)
Sunset:04:36 PM (PST) Moon Set:09:25 AM (PST)

Copyright © 2014 The Weather Underground, Inc.